Weather History for Buffalo, WY

Change the Weather History Date:

Tuesday, March 12, 2013

  Actual Average Record
Temperature  
Mean Temperature 27 °F 33 °F  
Max Temperature 41 °F 45 °F 71 °F (2007)
Min Temperature 12 °F 22 °F 4 °F (2009)
Degree Days  
Heating Degree Days 38 32  
Month to date heating degree days 383 399  
Since 1 July heating degree days 5332 5639  
Cooling Degree Days 0 0  
Month to date cooling degree days 0 0  
Year to date cooling degree days 0 0  
Moisture  
Dew Point 16 °F    
Average Humidity 62    
Maximum Humidity 84    
Minimum Humidity 40    
Precipitation  
Precipitation 0.00 in 0.03 in 0.01 in (2006)
Month to date precipitation 0.03 0.27  
Year to date precipitation 0.64 1.04  
Sea Level Pressure  
Sea Level Pressure 30.27 in    
Wind  
Wind Speed 9 mph (SSE)    
Max Wind Speed 18 mph    
Max Gust Speed 24 mph    
Visibility 10 miles    
Events      
T = Trace of Precipitation, MM = Missing Value Source: NWS Daily Summary

Daily Weather History Graph

Daily Weather History Graph

Search for Another Location

Airport:

Trip Planner

Search our weather history database for the weather conditions in past years. The results will help you decide how hot, cold, wet, or windy it might be!

Date:

Astronomy

Mar. 12, 2013 Rise Set
Actual Time 7:24 AM MDT 7:09 PM MDT
Civil Twilight 6:55 AM MDT 7:38 PM MDT
Nautical Twilight 6:21 AM MDT 8:12 PM MDT
Astronomical Twilight 5:47 AM MDT 8:46 PM MDT
Moon 7:28 AM MDT (3/12) 8:32 PM MDT (3/12)
Length of Visible Light 12h 43m
Length of Day
11h 45m
New Moon, 1% of the Moon is Illuminated
Mar 12
New Moon
Mar 19
First Quarter
Mar 27
Full
Apr 2
Last Quarter
Apr 10
New

Hourly Weather History & Observations

Time (MDT) Temp. Windchill Dew Point Humidity Pressure Visibility Wind Dir Wind Speed Gust Speed Precip Events Conditions
12:53 AM 19.0 °F 11.1 °F 12.0 °F 74% 30.28 in 10.0 mi North 5.8 mph - N/A   Mostly Cloudy
1:53 AM 19.0 °F 10.0 °F 15.1 °F 85% 30.29 in 10.0 mi North 6.9 mph - N/A   Overcast
2:53 AM 19.9 °F 7.9 °F 14.0 °F 78% 30.32 in 10.0 mi NNW 11.5 mph - N/A   Overcast
3:53 AM 19.0 °F 5.6 °F 14.0 °F 81% 30.32 in 10.0 mi NNW 13.8 mph - N/A   Clear
4:53 AM 16.0 °F 10.4 °F 10.9 °F 81% 30.35 in 10.0 mi NW 3.5 mph - N/A   Partly Cloudy
5:53 AM 12.9 °F -0.2 °F 9.0 °F 84% 30.39 in 10.0 mi West 10.4 mph - N/A   Partly Cloudy
6:53 AM 16.0 °F 7.4 °F 10.9 °F 81% 30.38 in 10.0 mi West 5.8 mph - N/A   Clear
7:53 AM 17.1 °F - 12.0 °F 81% 30.38 in 10.0 mi Calm Calm - N/A   Partly Cloudy
8:22 AM 15.8 °F 8.6 °F 10.4 °F 79% 30.23 in 10.0 mi South 4.6 mph - N/A   Mostly Cloudy
8:45 AM 19.4 °F 11.5 °F 14.0 °F 80% 30.23 in 10.0 mi SE 5.8 mph - N/A   Mostly Cloudy
8:53 AM 19.0 °F 12.3 °F 12.9 °F 77% 30.38 in 10.0 mi SE 4.6 mph - N/A   Mostly Cloudy
9:07 AM 19.4 °F 11.5 °F 14.0 °F 80% 30.23 in 10.0 mi SE 5.8 mph - N/A   Partly Cloudy
9:53 AM 21.0 °F 14.6 °F 15.1 °F 78% 30.37 in 10.0 mi ESE 4.6 mph - N/A   Clear
10:53 AM 25.0 °F 13.1 °F 18.0 °F 75% 30.35 in 10.0 mi South 13.8 mph - N/A   Clear
11:53 AM 27.0 °F 15.2 °F 19.0 °F 72% 30.33 in 10.0 mi SSE 15.0 mph - N/A   Clear
12:53 PM 30.9 °F 20.7 °F 19.9 °F 64% 30.32 in 10.0 mi South 13.8 mph - N/A   Clear
1:53 PM 34.0 °F 27.2 °F 21.0 °F 59% 30.28 in 10.0 mi South 8.1 mph - N/A   Clear
2:53 PM 37.0 °F 28.5 °F 21.0 °F 52% 30.24 in 10.0 mi South 13.8 mph 17.3 mph N/A   Clear
3:53 PM 39.0 °F 31.8 °F 18.0 °F 43% 30.22 in 10.0 mi SSE 11.5 mph - N/A   Clear
4:53 PM 39.9 °F 32.5 °F 17.1 °F 40% 30.21 in 10.0 mi SSE 12.7 mph - N/A   Clear
5:53 PM 39.0 °F 31.0 °F 19.9 °F 46% 30.20 in 10.0 mi South 13.8 mph - N/A   Partly Cloudy
6:53 PM 37.0 °F 30.4 °F 21.0 °F 52% 30.19 in 10.0 mi South 9.2 mph - N/A   Mostly Cloudy
7:53 PM 35.1 °F 28.6 °F 21.0 °F 57% 30.20 in 10.0 mi South 8.1 mph - N/A   Mostly Cloudy
8:53 PM 34.0 °F 25.5 °F 21.0 °F 59% 30.19 in 10.0 mi South 11.5 mph - N/A   Mostly Cloudy
9:53 PM 34.0 °F 26.6 °F 21.0 °F 59% 30.16 in 10.0 mi SSE 9.2 mph - N/A   Clear
10:53 PM 37.0 °F 31.6 °F 21.0 °F 52% 30.13 in 10.0 mi SE 6.9 mph - N/A   Overcast
11:53 PM 36.0 °F 31.1 °F 21.0 °F 55% 30.11 in 10.0 mi SE 5.8 mph - N/A   Overcast